TimeEDT,TemperatureF,Dew PointF,Humidity,Sea Level PressureIn,VisibilityMPH,Wind Direction,Wind SpeedMPH,Gust SpeedMPH,PrecipitationIn,Events,Conditions,WindDirDegrees,DateUTC
12:51 AM,55.9,45.0,67,30.22,10.0,SE,6.9,-,N/A,,Overcast,140,2013-04-29 04:51:00
1:51 AM,55.0,46.0,72,30.19,10.0,ESE,4.6,-,0.00,,Overcast,120,2013-04-29 05:51:00
2:51 AM,54.0,48.0,80,30.19,10.0,SE,5.8,-,0.01,Rain,Light Rain,140,2013-04-29 06:51:00
3:51 AM,53.1,50.0,89,30.18,8.0,SE,8.1,-,0.03,Rain,Light Rain,130,2013-04-29 07:51:00
4:30 AM,53.6,51.8,94,30.17,5.0,ESE,6.9,-,0.04,Rain,Rain,120,2013-04-29 08:30:00
4:51 AM,53.1,51.1,93,30.17,5.0,ESE,8.1,-,0.06,Rain,Rain,120,2013-04-29 08:51:00
5:13 AM,53.6,51.8,94,30.16,5.0,ESE,5.8,-,0.03,Rain,Rain,120,2013-04-29 09:13:00
5:22 AM,53.6,51.8,94,30.17,4.0,ESE,6.9,-,0.04,Rain,Rain,120,2013-04-29 09:22:00
5:51 AM,54.0,52.0,93,30.16,5.0,SE,9.2,-,0.06,Rain,Light Rain,130,2013-04-29 09:51:00
6:21 AM,53.6,51.8,94,30.16,5.0,SE,10.4,-,0.04,Rain,Light Rain,130,2013-04-29 10:21:00
6:38 AM,53.6,53.6,100,30.17,4.0,SE,10.4,-,0.04,Rain,Light Rain,130,2013-04-29 10:38:00
6:51 AM,54.0,53.1,97,30.17,5.0,ESE,9.2,-,0.04,Rain,Light Rain,120,2013-04-29 10:51:00
7:51 AM,55.0,53.1,93,30.17,10.0,ESE,10.4,-,0.02,Rain,Light Rain,110,2013-04-29 11:51:00
8:51 AM,55.0,53.1,93,30.17,3.0,ESE,8.1,-,0.03,Rain,Rain,120,2013-04-29 12:51:00
9:51 AM,55.9,54.0,93,30.16,4.0,ESE,9.2,-,0.09,Rain,Rain,120,2013-04-29 13:51:00
10:51 AM,57.0,55.0,93,30.15,4.0,ESE,8.1,-,0.03,Rain,Light Rain,120,2013-04-29 14:51:00
11:05 AM,57.2,55.4,94,30.15,2.0,SE,10.4,-,0.02,Rain,Rain,130,2013-04-29 15:05:00
11:12 AM,57.2,55.4,94,30.15,1.2,SE,10.4,-,0.04,Rain,Rain,130,2013-04-29 15:12:00
11:19 AM,57.2,55.4,94,30.15,3.0,SE,10.4,18.4,0.05,Rain,Light Rain,140,2013-04-29 15:19:00
11:51 AM,57.9,55.0,90,30.14,10.0,SSE,18.4,26.5,0.05,,Overcast,150,2013-04-29 15:51:00
12:51 PM,57.0,55.0,93,30.14,6.0,SE,13.8,-,0.01,Rain,Light Rain,140,2013-04-29 16:51:00
1:51 PM,57.9,55.0,90,30.14,8.0,SSE,15.0,-,0.00,Rain,Light Rain,150,2013-04-29 17:51:00
2:51 PM,57.9,55.0,90,30.14,9.0,SSE,15.0,-,0.01,Rain,Light Rain,150,2013-04-29 18:51:00
3:20 PM,57.2,55.4,94,30.13,9.0,SSE,16.1,-,0.01,Rain,Light Rain,150,2013-04-29 19:20:00
3:46 PM,57.2,55.4,94,30.13,8.0,SSE,13.8,-,0.01,Rain,Light Rain,160,2013-04-29 19:46:00
3:51 PM,57.9,55.0,90,30.13,9.0,SSE,13.8,-,0.01,Rain,Light Rain,160,2013-04-29 19:51:00
4:28 PM,59.0,55.4,88,30.12,10.0,SSE,16.1,-,0.00,,Overcast,160,2013-04-29 20:28:00
4:51 PM,59.0,55.0,87,30.13,10.0,SSE,17.3,21.9,0.00,Rain,Light Rain,150,2013-04-29 20:51:00
5:34 PM,57.2,53.6,88,30.13,10.0,SSE,10.4,-,0.00,Rain,Light Rain,150,2013-04-29 21:34:00
5:51 PM,57.0,54.0,89,30.13,10.0,SE,9.2,-,0.01,Rain,Light Rain,140,2013-04-29 21:51:00
6:25 PM,57.2,55.4,94,30.13,10.0,SE,8.1,-,0.00,,Overcast,130,2013-04-29 22:25:00
6:51 PM,57.0,54.0,89,30.13,10.0,SE,9.2,-,0.00,,Overcast,140,2013-04-29 22:51:00
7:08 PM,57.2,53.6,88,30.13,10.0,SE,9.2,-,N/A,,Overcast,130,2013-04-29 23:08:00
7:31 PM,57.2,53.6,88,30.14,10.0,SE,11.5,-,N/A,,Overcast,130,2013-04-29 23:31:00
7:51 PM,57.0,53.1,87,30.14,10.0,SE,8.1,-,N/A,,Overcast,130,2013-04-29 23:51:00
8:37 PM,55.4,53.6,94,30.15,2.5,East,5.8,-,0.00,Rain,Light Rain,100,2013-04-30 00:37:00
8:51 PM,55.9,54.0,93,30.16,4.0,ESE,9.2,-,0.01,Rain,Light Rain,120,2013-04-30 00:51:00
9:08 PM,55.4,53.6,94,30.16,6.0,ESE,6.9,-,0.00,Rain,Light Rain,120,2013-04-30 01:08:00
9:51 PM,55.9,53.1,90,30.17,10.0,ESE,9.2,-,0.00,,Overcast,120,2013-04-30 01:51:00
10:03 PM,55.4,53.6,94,30.17,10.0,ESE,6.9,-,N/A,,Overcast,110,2013-04-30 02:03:00
10:30 PM,55.4,51.8,88,30.17,10.0,ESE,6.9,-,N/A,,Overcast,120,2013-04-30 02:30:00
10:51 PM,55.9,52.0,87,30.17,10.0,ESE,9.2,-,N/A,,Overcast,110,2013-04-30 02:51:00
11:09 PM,55.4,51.8,88,30.17,10.0,East,8.1,-,N/A,,Overcast,100,2013-04-30 03:09:00
11:51 PM,55.0,52.0,89,30.16,10.0,East,8.1,-,N/A,,Overcast,80,2013-04-30 03:51:00